Terminal Aerodrome Forecast
Issued by NWS Dallas/Fort Worth, TX

Home | Current Version | Previous Version | Text Only | Print | Product List | Glossary On
Versions: 1 2 3 4 5 6 7 8 9 10 11 12 13 14 15 16 17 18 19 20 21 22 23 24 25 26 27 28
000
FTUS44 KFWD 010500
TAFACT
TAF
KACT 010520Z 0106/0206 16016KT P6SM FEW300
     FM011100 18011KT P6SM BKN015
     FM011600 18015KT P6SM BKN025
     FM011800 18015KT P6SM SCT040=

USA.gov is the U.S. government's official web portal to all federal, state and local government web resources and services.